SCP
0 -0 0 -0 -0 -0 -0 -0 -0 -0 -0 -0 -0 -0 0 0 -0 -0 0 0 -0 0 2 3 3 3 2 2 1 1 0 0 1 0 1 0 0 0 0 0 0 0 0 0
-0 -0 -0 -0 -0 -0 -0 -0 -0 -0 -0 -0 -0 -0 0 -0 -0 0 0 0 -0 1 1 2 2 1 1 1 0 0 0 0 0 0 0 0 0 0 0 0 0 0 0 0
-0 -0 -0 -0 -0 -0 -0 0 0 -0 -0 0 0 0 0 0 0 0 0 0 0 0 0 2 1 0 0 1 0 0 0 0 0 0 0 0 0 0 0 0 0 0 0 0
0 0 0 -0 0 -0 -0 0 0 0 0 0 0 0 0 0 0 0 0 0 0 0 0 1 1 1 1 0 0 0 0 0 0 0 0 0 0 0 0 0 0 0 0 -0
0 0 0 0 0 -0 -0 0 0 0 0 0 0 0 0 0 -0 -0 0 -0 -0 0 0 1 2 1 0 0 0 0 0 -0 -0 -0 0 0 0 0 0 0 0 0 0 -0
0 0 0 0 0 0 0 -0 0 0 0 0 0 0 0 0 0 0 -0 -0 -0 0 0 1 2 0 0 0 0 0 -0 -0 -0 -0 -0 0 -0 0 0 0 0 0 -0 0
0 0 0 0 -0 0 0 0 -0 0 0 0 0 0 0 0 0 0 -0 -0 -0 0 0 1 1 0 0 0 -0 -0 -0 -0 -0 -0 -0 -0 0 0 0 -0 0 0 -0 0
0 0 0 -0 0 0 0 0 0 -0 0 0 0 0 0 0 0 0 -0 -0 0 0 0 0 0 0 0 -0 -0 -0 -0 -0 -0 -0 -0 -0 -0 0 0 0 -0 0 0 0
0 0 0 0 0 0 0 0 -0 0 0 0 0 0 0 0 0 0 -0 -0 0 0 0 0 0 0 0 -0 -0 0 -0 -0 -0 -0 -0 -0 -0 0 0 0 0 0 0 0
0 0 0 0 -0 0 0 0 -0 0 0 0 0 0 0 0 0 0 0 -0 0 -0 0 0 0 0 -0 -0 0 0 -0 -0 -0 -0 -0 -0 -0 0 0 0 0 0 0 0
0 0 0 0 0 -0 -0 0 0 -0 0 0 0 0 0 0 0 0 -0 0 0 0 0 0 0 0 -0 -0 0 -0 -0 -0 -0 -0 -0 -0 -0 0 0 0 0 0 0 0
0 0 0 0 -0 0 0 -0 -0 0 0 0 0 0 0 0 0 0 0 0 0 0 0 0 0 0 -0 -0 -0 -0 -0 -0 0 -0 -0 -0 -0 0 -0 0 -0 0 0 0
0 0 0 0 0 -0 -0 -0 0 0 0 0 0 0 0 0 0 0 0 0 0 0 0 0 -0 0 0 -0 -0 -0 -0 0 0 -0 -0 -0 -0 -0 0 0 -0 -0 0 -0
0 0 -0 0 -0 -0 -0 -0 0 0 0 0 0 0 0 0 0 0 0 0 0 0 0 -0 -0 -0 -0 -0 -0 -0 -0 0 -0 0 -0 -0 -0 -0 -0 0 0 0 0 0
0 0 -0 -0 -0 -0 -0 0 0 0 0 0 0 0 0 0 0 0 0 0 0 0 0 -0 -0 -0 -0 -0 -0 0 -0 -0 0 0 -0 -0 -0 -0 0 0 0 0 0 0
0 0 0 -0 0 0 -0 0 0 0 0 0 0 0 0 0 0 0 0 0 0 0 0 0 0 0 0 -0 -0 -0 -0 -0 -0 -0 -0 -0 0 -0 -0 0 0 0 0 0
-0 0 -0 -0 -0 0 0 0 0 0 0 0 0 0 0 0 0 0 0 0 0 0 0 0 0 0 -0 -0 0 0 -0 0 -0 -0 -0 -0 0 -0 -0 -0 0 0 0 0
0 0 0 0 0 0 0 0 0 0 0 0 0 0 0 0 0 0 0 0 0 0 0 0 0 0 0 0 0 0 0 0 0 -0 -0 -0 -0 -0 -0 -0 -0 -0 -0 -0
-0 0 0 0 0 0 0 0 0 0 0 0 0 0 0 0 0 0 0 0 0 0 0 0 0 0 0 0 0 0 0 0 0 0 0 -0 -0 -0 0 -0 -0 0 -0 -0
-0 0 0 -0 0 0 0 0 0 0 0 0 0 0 0 0 0 0 0 0 0 0 0 0 -0 0 0 0 0 0 0 0 0 0 0 0 0 -0 0 -0 0 0 -0 -0
-0 -0 0 0 -0 0 0 0 0 0 0 0 0 0 0 0 0 0 0 0 0 0 0 0 0 0 0 0 0 0 0 0 0 0 0 0 0 0 0 0 0 0 -0 -0
-0 -0 0 -0 -0 -0 -0 0 0 0 0 0 0 0 0 0 0 0 0 0 0 0 0 0 0 0 0 0 0 0 0 0 0 0 0 0 0 0 0 0 0 0 0 0
0 0 0 -0 -0 -0 -0 -0 0 0 0 0 0 0 0 0 0 0 0 0 0 0 0 0 0 0 0 0 0 0 0 0 0 0 0 0 0 0 0 0 0 0 0 0
-0 0 0 0 0 -0 -0 -0 -0 0 0 0 0 0 0 0 0 0 0 0 0 0 0 0 0 0 0 0 0 0 0 0 0 0 0 0 0 0 0 0 0 0 0 0
-0 0 0 0 0 0 -0 -0 -0 -0 -0 0 0 0 0 0 0 0 0 0 0 0 0 0 0 0 0 0 0 0 0 0 0 0 0 0 0 0 0 0 0 0 0 0
-0 -0 0 -0 0 0 0 -0 -0 -0 -0 -0 -0 -0 0 0 0 0 0 0 0 0 0 0 0 0 0 0 0 0 0 0 0 0 0 0 0 0 0 0 0 0 0 0
0 0 0 -0 0 -0 -0 0 0 -0 -0 -0 -0 -0 -0 -0 -0 0 0 0 0 0 0 0 0 0 0 0 0 0 0 0 0 0 0 0 0 0 0 0 0 0 0 0
Wind_Speed_500mb
38 43 43 45 47 50 43 44 39 36 34 21 20 16 30 62 85 65 27 43 12 19 16 28 58 60 54 59 49 55 57 56 53 50 48 45 42 38 35 32 33 30 25 18
43 41 43 48 45 48 50 44 46 43 34 22 17 50 50 61 63 32 27 34 14 7 19 31 53 56 59 61 59 59 55 50 48 45 41 40 39 38 37 35 29 27 25 19
41 37 31 29 19 36 40 38 20 24 25 32 34 29 29 42 39 34 25 26 19 4 29 38 59 59 59 61 57 55 51 46 44 41 39 37 40 37 35 30 31 28 22 19
17 23 21 16 22 34 38 38 35 29 31 40 33 42 37 50 51 31 33 24 31 6 37 52 44 59 60 57 51 47 45 44 42 43 36 36 42 34 30 34 32 28 22 14
8 11 27 25 17 21 31 47 36 30 28 27 43 49 38 48 44 29 36 16 15 16 34 41 53 56 55 51 48 45 45 42 41 33 34 40 40 39 34 31 28 29 17 14
9 9 7 11 19 25 28 31 29 31 30 34 35 20 11 54 47 22 6 24 29 22 43 52 51 55 54 49 47 45 42 41 32 44 43 35 36 35 30 26 27 28 21 15
19 10 9 5 3 4 5 15 49 48 47 51 30 32 59 62 53 44 29 32 38 27 57 65 54 56 51 48 45 47 43 35 33 38 35 34 36 34 25 24 28 27 19 19
4 9 8 19 11 5 13 51 57 51 47 51 52 55 56 54 47 47 36 36 30 22 75 75 55 58 49 46 52 46 31 36 38 29 33 36 33 29 29 29 35 27 18 23
10 8 25 35 25 35 41 46 42 51 51 55 62 55 55 57 46 56 42 47 27 39 73 69 60 54 51 55 48 39 39 43 35 32 34 32 26 31 31 30 29 23 21 21
8 10 10 34 39 35 42 44 50 53 66 73 62 55 55 51 51 61 47 33 17 61 70 59 60 51 50 50 43 40 45 40 36 31 39 24 26 27 25 27 30 31 28 24
23 15 26 7 26 41 50 43 53 65 60 47 40 49 47 52 57 56 45 36 29 56 64 63 55 52 57 48 51 41 36 31 36 31 31 26 21 24 24 25 24 27 27 22
5 14 3 21 40 45 45 45 54 62 46 40 42 41 43 53 41 37 36 20 44 57 58 62 56 54 57 51 48 44 37 37 38 35 25 20 19 18 17 19 22 24 23 18
7 16 19 42 45 40 47 50 53 40 34 40 37 34 36 33 23 23 23 40 55 53 62 58 59 59 60 60 53 41 42 39 42 39 36 32 23 20 22 26 22 24 23 18
22 25 43 38 41 53 42 47 40 29 21 26 27 18 17 16 8 28 33 43 45 45 56 57 58 56 58 65 51 37 35 40 43 30 45 35 25 20 18 23 27 26 24 19
26 30 35 41 41 34 35 44 40 30 34 35 43 38 23 25 31 20 23 33 41 62 58 55 56 52 58 52 42 38 30 31 26 33 30 33 31 32 24 26 27 28 28 28
28 27 39 40 40 28 35 45 41 36 35 34 41 38 20 20 26 27 22 48 63 56 46 50 58 41 44 51 47 38 23 28 30 37 38 35 25 30 28 32 21 28 32 36
28 31 35 44 37 31 32 37 39 32 30 30 30 24 25 21 31 39 33 32 55 56 61 66 52 40 48 52 43 38 27 26 22 39 43 35 33 34 32 37 30 29 18 26
20 24 26 33 34 21 30 36 40 39 37 30 24 27 26 30 31 27 32 24 30 51 58 55 45 38 44 45 34 19 37 27 26 28 42 42 38 36 38 44 39 33 20 33
23 25 31 32 31 25 30 40 42 43 40 34 30 41 45 39 29 32 32 31 34 33 33 36 43 40 44 42 31 14 34 31 25 10 39 48 36 28 42 42 45 30 35 43
27 28 32 31 29 33 31 36 44 40 38 41 33 31 41 39 43 44 38 41 34 26 20 21 33 38 40 40 27 14 22 32 25 26 39 34 38 33 51 53 51 39 47 42
26 27 32 33 32 32 39 37 38 40 26 29 35 39 46 47 49 47 53 50 41 34 28 16 25 43 51 38 29 19 35 29 21 38 23 40 44 41 53 62 49 44 39 38
23 24 29 31 32 34 33 35 32 31 32 31 29 31 39 47 46 47 44 47 40 28 27 27 19 16 32 34 40 26 21 22 26 28 49 49 57 46 52 72 69 61 55 55
22 22 24 27 30 30 32 37 35 33 33 37 44 43 45 45 41 43 46 37 34 26 25 26 19 14 11 27 48 29 14 18 35 42 42 47 55 58 60 63 68 66 57 53
16 19 19 22 22 23 30 33 43 49 44 40 40 42 44 41 42 43 41 36 31 27 31 27 19 12 12 24 36 29 28 18 24 28 29 36 37 42 46 49 49 47 43 41
12 12 13 15 21 26 28 31 33 31 46 55 51 49 47 46 46 43 41 41 38 36 35 29 24 22 21 25 28 33 32 32 33 36 38 33 33 34 35 36 36 36 36 35
12 15 13 18 19 22 23 24 29 30 28 32 51 57 58 55 54 55 61 64 66 63 57 50 42 40 41 32 35 36 48 45 45 42 46 49 53 59 62 63 62 60 59 60
14 15 15 16 19 20 23 25 27 29 29 31 31 40 52 56 59 59 62 69 74 76 77 76 69 67 71 73 72 71 71 73 74 73 74 72 70 69 66 65 65 63 59 58
Wind_Direction_500mb
279 283 278 274 264 276 243 246 265 286 289 291 201 194 260 256 266 292 315 317 68 206 189 143 147 148 156 149 150 148 148 153 155 156 156 159 160 158 153 155 166 168 169 171
285 281 279 275 274 272 271 271 268 271 278 304 245 182 224 256 266 285 300 312 356 215 187 142 146 154 155 146 149 148 147 152 154 155 158 158 155 154 157 167 165 169 162 179
277 292 290 291 304 307 328 323 349 307 324 316 334 340 317 311 320 310 298 292 325 292 205 153 148 151 152 146 143 145 148 152 156 155 154 160 162 161 170 169 169 155 172 188
286 295 270 309 347 330 318 310 304 331 324 312 315 300 292 291 313 277 295 285 334 293 219 155 152 154 142 140 144 149 153 155 155 161 161 165 158 169 168 171 171 160 176 215
281 287 287 295 358 344 338 314 352 352 332 317 308 308 282 285 278 275 291 315 332 308 216 155 153 147 143 146 153 154 156 158 162 167 160 159 170 171 171 184 178 164 169 164
298 275 281 53 38 359 343 281 23 349 325 316 310 284 305 337 336 266 306 329 295 287 203 171 154 155 148 156 157 160 159 159 160 150 154 169 175 175 183 177 160 152 157 155
260 262 260 139 309 191 231 315 325 324 312 307 304 305 315 308 311 317 304 303 306 279 189 171 159 154 155 161 164 147 137 147 167 175 161 174 176 170 182 162 156 153 167 140
283 276 299 265 25 212 290 296 299 303 298 293 291 289 290 291 298 302 292 297 277 238 181 166 158 157 161 164 143 138 139 156 159 152 157 166 174 177 175 170 163 162 160 135
205 252 319 333 309 295 294 278 291 297 295 294 288 280 281 285 283 287 292 308 281 202 176 163 156 158 160 145 142 140 146 153 141 142 159 156 176 173 184 180 172 166 142 157
273 251 288 323 308 315 307 295 308 301 297 291 274 263 261 273 274 285 282 275 255 167 167 158 148 158 149 138 141 142 152 140 143 146 159 166 176 185 180 179 182 174 163 169
281 304 313 324 320 322 307 314 312 310 304 289 281 258 252 261 267 281 283 274 208 176 153 142 154 155 150 147 144 146 157 148 153 160 166 175 182 180 190 191 186 179 177 186
293 29 341 298 322 322 328 317 315 316 308 302 295 279 254 260 265 271 272 268 182 166 154 148 157 154 150 150 147 160 150 150 154 164 156 149 153 150 146 168 169 166 161 171
36 359 1 328 321 326 317 323 327 317 311 312 295 280 268 277 287 279 256 205 184 170 151 156 158 157 154 155 154 156 155 162 167 176 165 144 131 136 142 141 148 152 154 170
44 10 347 333 323 325 333 339 341 326 318 348 347 253 241 99 4 47 123 176 182 166 153 163 161 153 153 149 149 153 159 173 178 173 164 148 149 136 135 145 156 160 165 172
37 25 347 335 341 341 347 353 355 351 5 25 42 55 66 83 90 99 83 168 174 151 159 162 155 149 149 147 148 155 159 174 164 155 154 153 154 148 138 146 152 162 165 158
30 10 354 353 348 356 358 360 8 7 11 32 53 64 55 84 93 134 109 108 117 130 145 149 136 145 156 147 154 158 169 143 175 165 153 163 150 143 140 149 154 149 159 159
18 1 355 356 354 2 3 3 14 16 26 33 50 70 97 116 99 91 119 80 109 121 118 124 126 121 127 147 158 164 173 141 163 172 158 160 142 151 153 151 149 154 149 163
44 1 18 6 4 22 11 12 30 31 31 37 57 71 87 101 111 100 116 116 111 122 129 132 130 127 133 151 166 156 167 169 165 181 161 164 150 149 152 149 149 157 146 144
37 19 28 25 16 25 33 27 33 39 40 46 70 75 67 79 103 106 111 125 114 116 123 144 151 145 147 164 174 123 158 180 196 216 171 165 148 161 157 149 152 152 139 139
46 33 42 42 35 33 39 32 30 39 53 53 62 76 77 90 92 96 101 101 97 100 117 151 168 167 161 171 183 143 184 192 182 192 153 150 152 156 179 161 154 143 133 137
39 41 44 49 47 42 41 40 36 37 35 61 65 59 68 78 89 95 92 90 86 90 97 124 163 173 176 183 195 163 154 178 173 123 174 134 149 139 126 157 141 136 125 125
46 45 52 51 54 56 47 49 51 52 53 59 73 82 82 78 79 81 83 86 93 94 98 103 103 134 183 182 192 178 151 144 155 155 123 127 134 143 126 134 143 145 147 137
58 54 54 59 61 67 63 55 53 49 56 65 66 68 73 75 76 81 77 70 82 92 93 95 100 107 144 185 203 199 205 171 141 154 153 142 146 148 144 142 142 145 145 142
66 71 69 64 67 63 64 57 55 60 61 65 67 74 76 73 75 72 72 73 71 74 78 74 72 84 156 153 146 184 216 192 154 150 156 156 157 151 151 149 147 146 147 150
95 80 69 70 63 79 79 76 71 63 64 67 69 71 74 79 81 77 76 80 81 80 77 78 88 99 108 125 139 147 149 150 142 136 133 135 134 134 132 132 130 130 128 124
113 96 94 78 73 74 79 78 77 76 78 74 73 74 75 79 85 90 91 88 85 82 80 80 84 94 97 100 103 115 121 129 125 126 122 117 116 114 111 108 106 107 110 109
134 119 112 104 85 86 87 85 85 85 84 87 87 74 78 81 81 86 90 91 89 82 79 78 81 87 95 98 98 99 98 99 97 99 101 101 102 101 102 103 104 101 101 104
Wind_Speed_850mb
38 43 43 45 47 50 43 44 39 36 34 21 20 16 30 62 85 65 27 43 12 19 16 28 58 60 54 59 49 55 57 56 53 50 48 45 42 38 35 32 33 30 25 18
43 41 43 48 45 48 50 44 46 43 34 22 17 50 50 61 63 32 27 34 14 7 19 31 53 56 59 61 59 59 55 50 48 45 41 40 39 38 37 35 29 27 25 19
41 37 31 29 19 36 40 38 20 24 25 32 34 29 29 42 39 34 25 26 19 4 29 38 59 59 59 61 57 55 51 46 44 41 39 37 40 37 35 30 31 28 22 19
17 23 21 16 22 34 38 38 35 29 31 40 33 42 37 50 51 31 33 24 31 6 37 52 44 59 60 57 51 47 45 44 42 43 36 36 42 34 30 34 32 28 22 14
8 11 27 25 17 21 31 47 36 30 28 27 43 49 38 48 44 29 36 16 15 16 34 41 53 56 55 51 48 45 45 42 41 33 34 40 40 39 34 31 28 29 17 14
9 9 7 11 19 25 28 31 29 31 30 34 35 20 11 54 47 22 6 24 29 22 43 52 51 55 54 49 47 45 42 41 32 44 43 35 36 35 30 26 27 28 21 15
19 10 9 5 3 4 5 15 49 48 47 51 30 32 59 62 53 44 29 32 38 27 57 65 54 56 51 48 45 47 43 35 33 38 35 34 36 34 25 24 28 27 19 19
4 9 8 19 11 5 13 51 57 51 47 51 52 55 56 54 47 47 36 36 30 22 75 75 55 58 49 46 52 46 31 36 38 29 33 36 33 29 29 29 35 27 18 23
10 8 25 35 25 35 41 46 42 51 51 55 62 55 55 57 46 56 42 47 27 39 73 69 60 54 51 55 48 39 39 43 35 32 34 32 26 31 31 30 29 23 21 21
8 10 10 34 39 35 42 44 50 53 66 73 62 55 55 51 51 61 47 33 17 61 70 59 60 51 50 50 43 40 45 40 36 31 39 24 26 27 25 27 30 31 28 24
23 15 26 7 26 41 50 43 53 65 60 47 40 49 47 52 57 56 45 36 29 56 64 63 55 52 57 48 51 41 36 31 36 31 31 26 21 24 24 25 24 27 27 22
5 14 3 21 40 45 45 45 54 62 46 40 42 41 43 53 41 37 36 20 44 57 58 62 56 54 57 51 48 44 37 37 38 35 25 20 19 18 17 19 22 24 23 18
7 16 19 42 45 40 47 50 53 40 34 40 37 34 36 33 23 23 23 40 55 53 62 58 59 59 60 60 53 41 42 39 42 39 36 32 23 20 22 26 22 24 23 18
22 25 43 38 41 53 42 47 40 29 21 26 27 18 17 16 8 28 33 43 45 45 56 57 58 56 58 65 51 37 35 40 43 30 45 35 25 20 18 23 27 26 24 19
26 30 35 41 41 34 35 44 40 30 34 35 43 38 23 25 31 20 23 33 41 62 58 55 56 52 58 52 42 38 30 31 26 33 30 33 31 32 24 26 27 28 28 28
28 27 39 40 40 28 35 45 41 36 35 34 41 38 20 20 26 27 22 48 63 56 46 50 58 41 44 51 47 38 23 28 30 37 38 35 25 30 28 32 21 28 32 36
28 31 35 44 37 31 32 37 39 32 30 30 30 24 25 21 31 39 33 32 55 56 61 66 52 40 48 52 43 38 27 26 22 39 43 35 33 34 32 37 30 29 18 26
20 24 26 33 34 21 30 36 40 39 37 30 24 27 26 30 31 27 32 24 30 51 58 55 45 38 44 45 34 19 37 27 26 28 42 42 38 36 38 44 39 33 20 33
23 25 31 32 31 25 30 40 42 43 40 34 30 41 45 39 29 32 32 31 34 33 33 36 43 40 44 42 31 14 34 31 25 10 39 48 36 28 42 42 45 30 35 43
27 28 32 31 29 33 31 36 44 40 38 41 33 31 41 39 43 44 38 41 34 26 20 21 33 38 40 40 27 14 22 32 25 26 39 34 38 33 51 53 51 39 47 42
26 27 32 33 32 32 39 37 38 40 26 29 35 39 46 47 49 47 53 50 41 34 28 16 25 43 51 38 29 19 35 29 21 38 23 40 44 41 53 62 49 44 39 38
23 24 29 31 32 34 33 35 32 31 32 31 29 31 39 47 46 47 44 47 40 28 27 27 19 16 32 34 40 26 21 22 26 28 49 49 57 46 52 72 69 61 55 55
22 22 24 27 30 30 32 37 35 33 33 37 44 43 45 45 41 43 46 37 34 26 25 26 19 14 11 27 48 29 14 18 35 42 42 47 55 58 60 63 68 66 57 53
16 19 19 22 22 23 30 33 43 49 44 40 40 42 44 41 42 43 41 36 31 27 31 27 19 12 12 24 36 29 28 18 24 28 29 36 37 42 46 49 49 47 43 41
12 12 13 15 21 26 28 31 33 31 46 55 51 49 47 46 46 43 41 41 38 36 35 29 24 22 21 25 28 33 32 32 33 36 38 33 33 34 35 36 36 36 36 35
12 15 13 18 19 22 23 24 29 30 28 32 51 57 58 55 54 55 61 64 66 63 57 50 42 40 41 32 35 36 48 45 45 42 46 49 53 59 62 63 62 60 59 60
14 15 15 16 19 20 23 25 27 29 29 31 31 40 52 56 59 59 62 69 74 76 77 76 69 67 71 73 72 71 71 73 74 73 74 72 70 69 66 65 65 63 59 58
Wind_Direction_850mb
279 283 278 274 264 276 243 246 265 286 289 291 201 194 260 256 266 292 315 317 68 206 189 143 147 148 156 149 150 148 148 153 155 156 156 159 160 158 153 155 166 168 169 171
285 281 279 275 274 272 271 271 268 271 278 304 245 182 224 256 266 285 300 312 356 215 187 142 146 154 155 146 149 148 147 152 154 155 158 158 155 154 157 167 165 169 162 179
277 292 290 291 304 307 328 323 349 307 324 316 334 340 317 311 320 310 298 292 325 292 205 153 148 151 152 146 143 145 148 152 156 155 154 160 162 161 170 169 169 155 172 188
286 295 270 309 347 330 318 310 304 331 324 312 315 300 292 291 313 277 295 285 334 293 219 155 152 154 142 140 144 149 153 155 155 161 161 165 158 169 168 171 171 160 176 215
281 287 287 295 358 344 338 314 352 352 332 317 308 308 282 285 278 275 291 315 332 308 216 155 153 147 143 146 153 154 156 158 162 167 160 159 170 171 171 184 178 164 169 164
298 275 281 53 38 359 343 281 23 349 325 316 310 284 305 337 336 266 306 329 295 287 203 171 154 155 148 156 157 160 159 159 160 150 154 169 175 175 183 177 160 152 157 155
260 262 260 139 309 191 231 315 325 324 312 307 304 305 315 308 311 317 304 303 306 279 189 171 159 154 155 161 164 147 137 147 167 175 161 174 176 170 182 162 156 153 167 140
283 276 299 265 25 212 290 296 299 303 298 293 291 289 290 291 298 302 292 297 277 238 181 166 158 157 161 164 143 138 139 156 159 152 157 166 174 177 175 170 163 162 160 135
205 252 319 333 309 295 294 278 291 297 295 294 288 280 281 285 283 287 292 308 281 202 176 163 156 158 160 145 142 140 146 153 141 142 159 156 176 173 184 180 172 166 142 157
273 251 288 323 308 315 307 295 308 301 297 291 274 263 261 273 274 285 282 275 255 167 167 158 148 158 149 138 141 142 152 140 143 146 159 166 176 185 180 179 182 174 163 169
281 304 313 324 320 322 307 314 312 310 304 289 281 258 252 261 267 281 283 274 208 176 153 142 154 155 150 147 144 146 157 148 153 160 166 175 182 180 190 191 186 179 177 186
293 29 341 298 322 322 328 317 315 316 308 302 295 279 254 260 265 271 272 268 182 166 154 148 157 154 150 150 147 160 150 150 154 164 156 149 153 150 146 168 169 166 161 171
36 359 1 328 321 326 317 323 327 317 311 312 295 280 268 277 287 279 256 205 184 170 151 156 158 157 154 155 154 156 155 162 167 176 165 144 131 136 142 141 148 152 154 170
44 10 347 333 323 325 333 339 341 326 318 348 347 253 241 99 4 47 123 176 182 166 153 163 161 153 153 149 149 153 159 173 178 173 164 148 149 136 135 145 156 160 165 172
37 25 347 335 341 341 347 353 355 351 5 25 42 55 66 83 90 99 83 168 174 151 159 162 155 149 149 147 148 155 159 174 164 155 154 153 154 148 138 146 152 162 165 158
30 10 354 353 348 356 358 360 8 7 11 32 53 64 55 84 93 134 109 108 117 130 145 149 136 145 156 147 154 158 169 143 175 165 153 163 150 143 140 149 154 149 159 159
18 1 355 356 354 2 3 3 14 16 26 33 50 70 97 116 99 91 119 80 109 121 118 124 126 121 127 147 158 164 173 141 163 172 158 160 142 151 153 151 149 154 149 163
44 1 18 6 4 22 11 12 30 31 31 37 57 71 87 101 111 100 116 116 111 122 129 132 130 127 133 151 166 156 167 169 165 181 161 164 150 149 152 149 149 157 146 144
37 19 28 25 16 25 33 27 33 39 40 46 70 75 67 79 103 106 111 125 114 116 123 144 151 145 147 164 174 123 158 180 196 216 171 165 148 161 157 149 152 152 139 139
46 33 42 42 35 33 39 32 30 39 53 53 62 76 77 90 92 96 101 101 97 100 117 151 168 167 161 171 183 143 184 192 182 192 153 150 152 156 179 161 154 143 133 137
39 41 44 49 47 42 41 40 36 37 35 61 65 59 68 78 89 95 92 90 86 90 97 124 163 173 176 183 195 163 154 178 173 123 174 134 149 139 126 157 141 136 125 125
46 45 52 51 54 56 47 49 51 52 53 59 73 82 82 78 79 81 83 86 93 94 98 103 103 134 183 182 192 178 151 144 155 155 123 127 134 143 126 134 143 145 147 137
58 54 54 59 61 67 63 55 53 49 56 65 66 68 73 75 76 81 77 70 82 92 93 95 100 107 144 185 203 199 205 171 141 154 153 142 146 148 144 142 142 145 145 142
66 71 69 64 67 63 64 57 55 60 61 65 67 74 76 73 75 72 72 73 71 74 78 74 72 84 156 153 146 184 216 192 154 150 156 156 157 151 151 149 147 146 147 150
95 80 69 70 63 79 79 76 71 63 64 67 69 71 74 79 81 77 76 80 81 80 77 78 88 99 108 125 139 147 149 150 142 136 133 135 134 134 132 132 130 130 128 124
113 96 94 78 73 74 79 78 77 76 78 74 73 74 75 79 85 90 91 88 85 82 80 80 84 94 97 100 103 115 121 129 125 126 122 117 116 114 111 108 106 107 110 109
134 119 112 104 85 86 87 85 85 85 84 87 87 74 78 81 81 86 90 91 89 82 79 78 81 87 95 98 98 99 98 99 97 99 101 101 102 101 102 103 104 101 101 104